[[{"header":{"parameterUnit":"m.s-1","parameterCategory":1,"la1":30.2991,"la2":30.254,"lo1":-89.0895,"lo2":-89.0444,"dy":0.0017,"dx":0.0017,"nx":28,"ny":28,"refTime":"2024-06-21T21:00:00:Z","depth":0,"parameterNumber":2,"parameterNumberName":"U-component_of_WINDS"},"data":[0,0,0,0,0,0,0,0,0,0,0,0,0,0,0,0,0,0,0,0,0,0,0,0,0,0,0,0,0,0,0,0,0,0,0,0,0,0,0,0,0,0,0,0,0,0,0,0,0,0,0,0,0,0,0,0,0,0,-0.4487,-0.4487,0,-0.4444,-0.4444,-0.4443,-0.4393,-0.4392,-0.4392,-0.4391,-0.4345,-0.4344,-0.4344,0,0,0,0,0,0,0,0,0,0,0,0,0,-0.4525,-0.4524,-0.4487,-0.4487,-0.4486,-0.4444,-0.4444,-0.4443,-0.4393,-0.4392,-0.4392,-0.4391,-0.4345,-0.4344,-0.4344,0,0,0,0,0,0,0,0,0,0,0,0,0,-0.4498,-0.4524,-0.4487,-0.4456,-0.4453,-0.4444,-0.4443,-0.4443,-0.4394,-0.4392,-0.4391,-0.439,-0.4345,-0.4345,-0.4344,-0.4361,0,0,-0.4341,-0.4341,0,0,0,0,0,0,0,0,-0.4499,-0.4496,-0.4461,-0.4458,-0.4455,-0.4423,-0.444,-0.4415,-0.4394,-0.4416,-0.4391,-0.439,-0.4372,-0.4369,-0.4363,-0.4359,-0.4357,-0.4341,-0.4341,-0.434,-0.434,0,0,0,0,0,0,0,-0.4501,-0.4498,-0.447,-0.4461,-0.4457,-0.4444,-0.4439,-0.4435,-0.4401,-0.4414,-0.441,-0.4406,-0.437,-0.4364,-0.4361,-0.4356,-0.4341,-0.4341,-0.434,-0.434,-0.4365,-0.4366,0,0,0,0,0,0,-0.4508,-0.45,-0.4471,-0.4469,-0.4475,-0.4444,-0.4439,-0.4434,-0.4401,-0.4394,-0.4407,-0.4404,-0.4366,-0.4362,-0.436,-0.4378,-0.434,-0.434,-0.4339,-0.4363,-0.4365,-0.4366,0,0,0,0,0,0,-0.4509,-0.4506,-0.4473,-0.4483,-0.4478,-0.4445,-0.444,-0.4434,-0.4428,-0.4395,-0.4389,-0.4408,-0.4365,-0.4361,-0.4361,-0.4376,-0.4339,-0.4339,-0.4362,-0.4364,-0.4365,-0.4416,0,0,0,0,0,0,-0.451,-0.4507,-0.4513,-0.4484,-0.4478,-0.4476,-0.4441,-0.4434,-0.4427,-0.4423,-0.4394,-0.4388,-0.4364,-0.4363,-0.4361,-0.4374,-0.4338,-0.4361,-0.4363,-0.4365,-0.4412,-0.4419,-0.4424,0,0,0,0,0,-0.4512,-0.4529,-0.4514,-0.4511,-0.4486,-0.4477,-0.4474,-0.4446,-0.4429,-0.4435,-0.4414,-0.4389,-0.4375,-0.4363,-0.436,-0.4374,-0.436,-0.4362,-0.4365,-0.441,-0.4417,-0.4424,0,0,0,0,0,0,-0.456,-0.4524,-0.4508,-0.4516,-0.45,-0.4469,-0.4476,-0.4455,-0.4443,-0.4439,-0.4404,-0.4398,-0.4403,-0.4388,-0.4376,-0.4389,-0.4363,-0.4366,-0.4399,-0.4406,-0.4412,-0.4415,-0.4337,0,0,0,0,0,-0.4572,-0.4569,-0.4537,-0.4547,-0.454,-0.451,-0.4505,-0.4485,-0.4467,-0.446,-0.4439,-0.4422,-0.4413,-0.4408,-0.4399,-0.441,-0.4403,-0.4417,-0.4423,-0.4428,-0.4431,-0.4436,-0.4442,-0.4375,-0.4374,-0.4374,0,0,-0.4596,-0.4576,-0.4576,-0.4557,-0.4542,-0.4539,-0.4505,-0.4503,-0.45,-0.4459,-0.4459,-0.4443,-0.4421,-0.4428,-0.4429,-0.4415,-0.4448,-0.4432,-0.4436,-0.4435,-0.4439,-0.4445,-0.4451,-0.4376,-0.4376,-0.4376,0,0,-0.4639,-0.4623,-0.463,-0.4616,-0.4595,-0.4574,-0.4576,-0.4548,-0.4536,-0.4536,-0.4505,-0.4501,-0.4487,-0.4473,-0.4464,-0.4502,-0.4479,-0.4499,-0.453,-0.4535,-0.4541,-0.4545,-0.4559,-0.4564,-0.4502,-0.4502,-0.4502,0,-0.4671,-0.4666,-0.4636,-0.4637,-0.4629,-0.4592,-0.4599,-0.4587,-0.4563,-0.4558,-0.4543,-0.4526,-0.4509,-0.4511,-0.452,-0.4514,-0.4515,-0.4503,-0.4542,-0.4547,-0.455,-0.4563,-0.4568,-0.4504,-0.4504,-0.4504,-0.4504,0,-0.4708,-0.4705,-0.4713,-0.4692,-0.4685,-0.4688,-0.4658,-0.4654,-0.4635,-0.4616,-0.4615,-0.4593,-0.4579,-0.4578,-0.4558,-0.4577,-0.4569,-0.4549,-0.4523,-0.456,-0.4572,-0.4576,-0.4508,-0.4507,-0.4507,-0.4506,0,0,-0.4781,-0.4743,-0.4746,-0.4736,-0.471,-0.4707,-0.4708,-0.4695,-0.4693,-0.4677,-0.4678,-0.4667,-0.4648,-0.4638,-0.4616,-0.462,-0.4652,-0.4599,-0.4598,-0.461,-0.4672,-0.4689,-0.4695,-0.4636,-0.4637,-0.4638,-0.4674,0,-0.4819,-0.4821,-0.4793,-0.4802,-0.4799,-0.4764,-0.4765,-0.4749,-0.4731,-0.4725,-0.4704,-0.4698,-0.4672,-0.4666,-0.4669,-0.4648,-0.4664,-0.4644,-0.4636,-0.4636,-0.4644,-0.4701,-0.4718,-0.4754,-0.4679,-0.4679,-0.468,0,-0.4864,-0.4853,-0.4861,-0.4835,-0.4832,-0.4834,-0.482,-0.4815,-0.4795,-0.4781,-0.4771,-0.4746,-0.4745,-0.472,-0.4718,-0.4705,-0.47,-0.4689,-0.4689,-0.4688,-0.4661,-0.4702,-0.4764,-0.477,-0.4686,-0.4686,-0.4685,0,-0.4918,-0.4904,-0.4907,-0.49,-0.4869,-0.4871,-0.4858,-0.4837,-0.4831,-0.4818,-0.4813,-0.48,-0.4793,-0.4783,-0.4755,-0.4739,-0.4756,-0.4729,-0.4745,-0.4746,-0.4751,-0.4751,-0.4815,-0.4747,-0.4746,-0.4746,-0.4746,0,-0.4964,-0.4971,-0.4931,-0.4933,-0.494,-0.4908,-0.4915,-0.4898,-0.488,-0.4878,-0.4846,-0.4845,-0.4808,-0.4802,-0.478,-0.4782,-0.4779,-0.4768,-0.4762,-0.4771,-0.4773,-0.4768,-0.4765,-0.4748,-0.4747,-0.4747,-0.4747,0,-0.5026,-0.4999,-0.5,-0.4971,-0.4963,-0.497,-0.4944,-0.4944,-0.4924,-0.4922,-0.492,-0.4888,-0.488,-0.4851,-0.4835,-0.482,-0.4829,-0.4817,-0.4836,-0.4833,-0.4851,-0.485,-0.4915,-0.4922,-0.4848,-0.4849,-0.485,0,-0.5058,-0.5062,-0.5033,-0.503,-0.5019,-0.5013,-0.5007,-0.4975,-0.497,-0.4948,-0.4951,-0.494,-0.493,-0.4918,-0.4893,-0.4881,-0.4869,-0.4893,-0.4867,-0.4877,-0.4871,-0.4871,-0.4872,-0.4899,-0.4899,-0.49,-0.4901,0,-0.5118,-0.5104,-0.5096,-0.5084,-0.5077,-0.5066,-0.5052,-0.5051,-0.5016,-0.5011,-0.5002,-0.4995,-0.4979,-0.4969,-0.4952,-0.4938,-0.4914,-0.4909,-0.4912,-0.4922,-0.4933,-0.4928,-0.4852,-0.4908,-0.4907,-0.4907,-0.4906,-0.4906,-0.5166,-0.5168,-0.5149,-0.5141,-0.5127,-0.5116,-0.5115,-0.5095,-0.5087,-0.5073,-0.5054,-0.5048,-0.5027,-0.5003,-0.4991,-0.4985,-0.4972,-0.4976,-0.4978,-0.498,-0.4984,-0.4934,-0.4982,-0.4981,-0.4981,-0.4981,-0.4981,0,-0.5225,-0.521,-0.5204,-0.5186,-0.518,-0.5158,-0.5142,-0.5138,-0.5133,-0.5117,-0.5107,-0.5098,-0.5087,-0.5062,-0.5049,-0.5049,-0.5038,-0.5047,-0.5047,-0.5044,-0.4997,-0.4995,-0.5056,-0.5056,-0.5056,-0.5056,-0.5056,-0.5056,-0.5255,-0.5259,-0.5243,-0.5239,-0.5224,-0.5218,-0.5211,-0.52,-0.5186,-0.5177,-0.5169,-0.5152,-0.5132,-0.5117,-0.5107,-0.5099,-0.5096,-0.5109,-0.5099,-0.5055,-0.5048,-0.5041,-0.504,-0.5109,-0.5109,-0.5147,-0.5147,-0.5147]},{"header":{"parameterUnit":"m.s-1","parameterCategory":1,"la1":30.2991,"la2":30.254,"lo1":-89.0895,"lo2":-89.0444,"dy":0.0017,"dx":0.0017,"nx":28,"ny":28,"refTime":"2024-06-21T21:00:00:Z","depth":0,"parameterNumber":3,"parameterNumberName":"V-component_of_WINDS"},"data":[0,0,0,0,0,0,0,0,0,0,0,0,0,0,0,0,0,0,0,0,0,0,0,0,0,0,0,0,0,0,0,0,0,0,0,0,0,0,0,0,0,0,0,0,0,0,0,0,0,0,0,0,0,0,0,0,0,0,1.3852,1.3851,0,1.3802,1.3802,1.3801,1.378,1.378,1.378,1.378,1.3725,1.3723,1.3722,0,0,0,0,0,0,0,0,0,0,0,0,0,1.3922,1.3921,1.3852,1.3851,1.385,1.3802,1.3802,1.3801,1.378,1.378,1.378,1.378,1.3725,1.3723,1.3722,0,0,0,0,0,0,0,0,0,0,0,0,0,1.3884,1.3921,1.3852,1.3834,1.3832,1.3803,1.3802,1.3801,1.378,1.378,1.378,1.378,1.3726,1.3724,1.3721,1.3704,0,0,1.3714,1.3713,0,0,0,0,0,0,0,0,1.3886,1.3881,1.3837,1.3835,1.3833,1.3797,1.3806,1.3768,1.378,1.3799,1.378,1.378,1.3749,1.3744,1.3735,1.3702,1.3699,1.3714,1.3713,1.3712,1.3711,0,0,0,0,0,0,0,1.3889,1.3883,1.3832,1.3837,1.3834,1.3827,1.3822,1.3799,1.3774,1.3798,1.3796,1.3791,1.3747,1.3737,1.3733,1.3698,1.3714,1.3712,1.3711,1.371,1.3648,1.3647,0,0,0,0,0,0,1.3895,1.3886,1.3833,1.383,1.3861,1.3826,1.382,1.3809,1.3774,1.3769,1.3791,1.379,1.3741,1.3736,1.3731,1.3708,1.3712,1.3709,1.3708,1.3648,1.3648,1.3647,0,0,0,0,0,0,1.3897,1.3891,1.3835,1.3858,1.385,1.3824,1.3812,1.3808,1.3797,1.3769,1.3764,1.3785,1.3741,1.3734,1.3711,1.3706,1.3708,1.3706,1.3648,1.3648,1.3648,1.3663,0,0,0,0,0,0,1.3899,1.3891,1.3886,1.3858,1.3849,1.3818,1.3812,1.3806,1.3794,1.3792,1.3762,1.3757,1.374,1.3715,1.3709,1.3703,1.3704,1.3649,1.3648,1.3648,1.3663,1.3663,1.3663,0,0,0,0,0,1.3901,1.3891,1.3886,1.3879,1.3842,1.3818,1.3813,1.3795,1.3794,1.3787,1.3768,1.3758,1.3708,1.3713,1.3706,1.3699,1.3649,1.3648,1.3648,1.3663,1.3663,1.3663,0,0,0,0,0,0,1.3918,1.3887,1.3881,1.3862,1.3843,1.3814,1.3806,1.3796,1.3776,1.3775,1.3753,1.3746,1.3724,1.3709,1.3715,1.368,1.3677,1.3675,1.3691,1.3691,1.3691,1.3695,1.3702,0,0,0,0,0,1.392,1.3904,1.3878,1.3863,1.3854,1.3832,1.382,1.3809,1.3787,1.3779,1.3758,1.3737,1.3716,1.3703,1.3682,1.366,1.3653,1.3652,1.3653,1.3653,1.3651,1.3638,1.3637,1.3646,1.3646,1.3646,0,0,1.3922,1.3904,1.3895,1.3866,1.385,1.3833,1.3825,1.3807,1.3794,1.3775,1.3753,1.3737,1.3711,1.3689,1.3678,1.3675,1.3647,1.3652,1.3653,1.3651,1.3637,1.3636,1.3636,1.3645,1.3645,1.3645,0,0,1.3919,1.3904,1.389,1.3874,1.385,1.3835,1.3832,1.3805,1.3794,1.3771,1.3757,1.374,1.3705,1.3687,1.3673,1.3662,1.3651,1.3656,1.3658,1.3645,1.3644,1.3643,1.3638,1.3637,1.3654,1.3655,1.3655,0,1.3925,1.3901,1.3883,1.3867,1.3854,1.3838,1.3823,1.3807,1.3777,1.3768,1.3766,1.3722,1.3703,1.3676,1.3673,1.3663,1.3657,1.3659,1.3646,1.3645,1.3644,1.3639,1.3637,1.3655,1.3655,1.3655,1.3655,0,1.3909,1.3892,1.3883,1.3856,1.3842,1.3826,1.3805,1.3793,1.3782,1.3766,1.3742,1.372,1.3694,1.3686,1.3675,1.3657,1.3656,1.365,1.3647,1.3644,1.3639,1.3637,1.3656,1.3656,1.3656,1.3656,0,0,1.3914,1.3878,1.3875,1.3863,1.3835,1.3821,1.3803,1.378,1.3769,1.3748,1.3732,1.3703,1.3697,1.3682,1.3668,1.3657,1.3648,1.3652,1.3651,1.3651,1.3626,1.363,1.3628,1.3641,1.3641,1.3641,1.3628,0,1.3907,1.3877,1.3861,1.3837,1.382,1.3804,1.3789,1.3769,1.3754,1.3736,1.3719,1.3698,1.3693,1.3683,1.3672,1.3652,1.3643,1.3653,1.3624,1.3624,1.3631,1.3626,1.3631,1.362,1.3626,1.3625,1.3625,0,1.3894,1.3875,1.385,1.3824,1.3816,1.3803,1.378,1.3763,1.374,1.373,1.3713,1.3699,1.3678,1.3677,1.3647,1.3654,1.3641,1.363,1.3629,1.3625,1.3624,1.3621,1.3616,1.3614,1.3622,1.3622,1.3623,0,1.39,1.3868,1.3849,1.3839,1.3808,1.3799,1.3785,1.3762,1.3749,1.3727,1.3718,1.3694,1.3681,1.3662,1.3641,1.3642,1.3613,1.361,1.3603,1.3603,1.3597,1.3598,1.3589,1.359,1.359,1.359,1.359,0,1.3893,1.3878,1.3852,1.384,1.3822,1.3803,1.3785,1.377,1.3749,1.3733,1.3717,1.3702,1.3676,1.3657,1.3641,1.3618,1.3612,1.3602,1.3598,1.3603,1.3604,1.3594,1.3594,1.3589,1.3589,1.359,1.359,0,1.3897,1.3879,1.3857,1.3829,1.3822,1.381,1.3786,1.3772,1.3757,1.3736,1.373,1.3704,1.3681,1.3659,1.3627,1.3616,1.3593,1.3588,1.3601,1.3599,1.3592,1.3593,1.3576,1.3572,1.3577,1.3577,1.3577,0,1.3894,1.3882,1.3854,1.3842,1.3829,1.3811,1.3797,1.3777,1.3763,1.3736,1.3726,1.3701,1.3681,1.3644,1.3621,1.3596,1.359,1.3586,1.3586,1.3592,1.3589,1.359,1.3588,1.3586,1.3586,1.3586,1.3586,0,1.3889,1.3881,1.3863,1.3841,1.3826,1.3807,1.3788,1.3779,1.3755,1.374,1.3717,1.3701,1.3669,1.3645,1.3617,1.3601,1.3589,1.3587,1.3583,1.3588,1.3597,1.3591,1.3602,1.3587,1.3587,1.3587,1.3587,1.3587,1.3889,1.3878,1.3856,1.3836,1.382,1.3802,1.3788,1.3771,1.3752,1.3725,1.3714,1.369,1.3666,1.3628,1.3612,1.3592,1.3589,1.3585,1.3583,1.3582,1.3583,1.36,1.3587,1.3587,1.3586,1.3586,1.3586,0,1.3883,1.3869,1.3851,1.3825,1.3809,1.3801,1.3779,1.3765,1.3745,1.3724,1.3704,1.3677,1.3653,1.3628,1.3603,1.3591,1.3585,1.3585,1.3585,1.3581,1.3587,1.3593,1.359,1.359,1.359,1.359,1.359,1.359,1.3879,1.3859,1.3847,1.3819,1.3803,1.3781,1.3769,1.3752,1.3735,1.3706,1.3687,1.3671,1.3648,1.3621,1.3598,1.3591,1.3582,1.3583,1.3575,1.3581,1.3581,1.3581,1.3585,1.3582,1.3582,1.357,1.357,1.357]}]]